Location: Aalen
(48.8330°N, 10.1000°E)
Time: 18:58:32
(UTC+02:00)

QB50P2 - Visible Passes

Search period start: 15 April 2024 00:00
Search period end: 25 April 2024 00:00
Orbit: 568 x 582 km, 98.0° (Epoch: 14 April)

Date Brightness Start Highest point End Pass type
(mag) Time Alt. Az. Time Alt. Az. Time Alt. Az.
15 Apr ? 03:56:28 10° NNE 04:00:36 74° ESE 04:01:26 54° S visible
15 Apr ? 05:33:05 10° NNW 05:35:16 14° WNW 05:37:26 10° W visible
16 Apr ? 04:00:00 10° NNE 04:04:08 80° ESE 04:05:07 51° S visible
16 Apr ? 05:36:48 10° NNW 05:38:45 13° WNW 05:40:43 10° W visible
17 Apr ? 04:03:30 10° NNE 04:07:38 86° E 04:08:47 47° S visible
17 Apr ? 05:40:30 10° NNW 05:42:14 12° WNW 05:43:56 10° W visible
18 Apr ? 02:34:48 10° E 02:35:20 10° E 02:35:53 10° E visible
18 Apr ? 04:07:00 10° NNE 04:11:09 87° WNW 04:12:26 44° SSW visible
18 Apr ? 05:44:16 10° NW 05:45:40 12° WNW 05:47:06 10° WNW visible
19 Apr ? 02:37:38 10° ENE 02:38:52 11° E 02:39:49 10° ESE visible
19 Apr ? 04:10:29 10° NNE 04:14:38 81° WNW 04:16:04 40° SSW visible
19 Apr ? 05:48:04 10° NW 05:49:06 11° NW 05:50:08 10° WNW visible
20 Apr ? 02:40:43 10° ENE 02:42:22 12° E 02:43:26 11° ESE visible
20 Apr ? 04:13:57 10° N 04:18:05 75° WNW 04:19:40 36° SSW visible
21 Apr ? 02:43:53 10° ENE 02:45:52 13° E 02:47:01 12° ESE visible
21 Apr ? 04:17:24 10° N 04:21:31 69° WNW 04:23:16 33° SSW visible
22 Apr ? 02:47:06 10° ENE 02:49:20 14° E 02:50:36 13° ESE visible
22 Apr ? 04:20:51 10° N 04:24:56 64° WNW 04:26:50 30° SW visible
23 Apr ? 02:50:20 10° NE 02:52:46 15° E 02:54:09 13° ESE visible
23 Apr ? 04:24:16 10° N 04:28:21 59° WNW 04:30:23 27° SW visible
24 Apr ? 02:53:33 10° NE 02:56:12 16° E 02:57:41 14° ESE visible
24 Apr ? 04:27:41 10° N 04:31:44 55° WNW 04:33:55 25° SW visible
